Location: Bishop�s Knoyle
(51.0728°N, 2.1714°W)
Time: 03:30:09
(UTC+00:00)

Envisat - Pass Details

Date: 17 September 2021
Orbit: 764 x 766 km, 98.2° (Epoch: 15 October)

Event Time Altitude Azimuth Distance (km) Brightness Sun altitude
Rises 03:53:56 0° 29° (NNE) 3,244 7.2 -17.8°
Reaches altitude 10° 03:57:26 10° 54° (NE) 2,311 6.8 -17.3°
Maximum altitude 04:00:05 14° 85° (E) 2,033 6.2 -17.0°
Drops below altitude 10° 04:02:43 10° 117° (ESE) 2,301 6.0 -16.6°
Sets 04:06:10 0° 142° (SE) 3,221 6.4 -16.1°
